Regional Weather Roundup
Issued by NWS

Home | Current Version | Previous Version | Text Only | Print | Product List | Glossary On
Versions: 1 2 3 4 5 6 7 8 9 10 11 12 13 14 15 16 17 18 19 20 21 22 23 24 25 26 27 28 29 30 31 32 33 34 35 36 37 38 39 40 41 42 43 44 45 46 47 48 49 50
000
ASUS43 KDTX 260310
RWRMI
MICHIGAN HOURLY REGIONAL WEATHER ROUNDUP
NATIONAL WEATHER SERVICE DETROIT/PONTIAC MI
1100 PM EDT SUN JUN 25 2017

NOTE: "FAIR" INDICATES FEW OR NO CLOUDS BELOW 12,000 FEET WITH NO
SIGNIFICANT WEATHER AND/OR OBSTRUCTION TO VISIBILITY.

MIZ047>049-052>055-059>063-066>070-074>076-081>083-260400-
SOUTHEAST LOWER MICHIGAN

CITY           SKY/WX    TMP DP  RH WIND       PRES   REMARKS
ADRIAN         MOCLDY    60  47  61 CALM      30.08R
ALMA           CLOUDY    60  52  74 SW5       30.03S
ANN ARBOR      CLEAR     51  47  86 SW3       30.06R
BAD AXE        LGT RAIN  57  55  92 W8        30.01S
CARO           CLOUDY    57  54  89 SW3       30.01S
DETROIT CITY   MOCLDY    62  51  67 W3        30.05R
DETROIT        PTCLDY    62  46  55 W6        30.06R
FLINT          CLOUDY    61  51  70 W7        30.04R
GROSSE ILE     CLEAR     62  46  55 W3        30.04S
HILLSDALE      PTCLDY    57  43  58 CALM      30.07S
HOWELL         MOCLDY    58  46  63 SW5       30.05S

CITY           SKY/WX    TMP DP  RH WIND       PRES   REMARKS
JACKSON        CLEAR     57  47  69 SW3       30.06S
LAMBERTVILLE   MOCLDY    57  49  75 CALM      30.07R
LANSING        PTCLDY    61  47  59 SW7       30.05S
LAPEER         CLOUDY    59  53  78 W5        30.03S
MASON          PTCLDY    59  48  67 CALM      30.06S
MONROE         CLEAR     59  47  64 CALM      30.05S
MT. CLEMENS    MOCLDY    61  53  75 W6        30.02R
PONTIAC        MOCLDY    59  53  80 SW3       30.04R
PORT HOPE        N/A     60  53  77 VRB5      29.98R
PORT HURON     CLOUDY    59  50  72 CALM      30.03S
TRI CITIES     CLOUDY    60  54  80 W5        30.02S
MIDLAND        CLOUDY    60  51  73 SW3       30.01S
TROY           MOCLDY    62  53  71 CALM      30.06S
SAGINAW HB     CLOUDY    61  52  72 SW3       30.01S
$$
MIZ043>046-050>051-056>058-064>065-071>073-077>080-260400-
SOUTHWEST LOWER MICHIGAN

CITY           SKY/WX    TMP DP  RH WIND       PRES   REMARKS
BATTLE CREEK   PTCLDY    59  48  67 W3        30.06F
BENTON HARBOR  MOCLDY    65  51  60 W12       30.08R
BIG RAPIDS     CLOUDY    58  51  75 CALM      30.02R
COLDWATER      PTCLDY    58  46  66 CALM      30.07S
FREMONT        HVY RAIN  56  54  90 W8G16     30.04R
HOLLAND        MOCLDY    63  52  67 W9        30.06S
GRAND RAPIDS   PTCLDY    60  52  74 SW8       30.04S
IONIA          FAIR      57  49  73 SW6       30.04S
KALAMAZOO      PTCLDY    62  46  55 W6        30.07S
LUDINGTON      CLOUDY    55  54  95 CALM      30.01S
MARSHALL       PTCLDY    56  45  67 CALM      30.06S
MOUNT PLEASANT CLOUDY    60  51  72 W3        30.01S
MUSKEGON       MOCLDY    61  52  72 NW8       30.05R
SOUTH HAVEN    MOCLDY    65  53  66 NW10G20   30.07R
$$
MIZ016>042-260400-
NORTHERN LOWER MICHIGAN

CITY           SKY/WX    TMP DP  RH WIND       PRES   REMARKS
ALPENA         CLOUDY    57  57 100 CALM      29.99R
BEAVER ISLAND  DRIZZLE   55  54  97 CALM      29.98S
BELLAIRE       PTCLDY    53  51  94 CALM      30.00S
CADILLAC       CLOUDY    56  52  86 W7        30.00S
CHARLEVOIX     CLOUDY    58  56  93 W3        30.01F
FRANKFORT      CLOUDY    57  53  86 SW3       29.99S
GAYLORD        PTCLDY    54  48  80 CALM      30.00S
GRAYLING       CLOUDY    55  51  85 CALM      30.01S
HARBOR SPRINGS MOCLDY    57  55  95 W3        29.99S
HOUGHTON LAKE  CLOUDY    58  51  78 W14G20    30.01R
MANISTEE       PTCLDY    54  53  97 CALM      30.00F
OSCODA         CLOUDY    58  56  93 W10       29.99R
PELLSTON       CLOUDY    55  51  86 CALM      29.99S
ROGERS CITY    CLOUDY    56  54  92 CALM      30.00S
TRAVERSE CITY  PTCLDY    56  52  86 SE3       29.98S
$$
MIZ007>008-015-260400-
EASTERN UPPER MICHIGAN

CITY           SKY/WX    TMP DP  RH WIND       PRES   REMARKS
KINROSS        CLOUDY    54  50  86 NW3       29.98S
MACKINAC ISLAN CLOUDY    56  56 100 CALM      29.98S
NEWBERRY         N/A     52  51  97 CALM      29.97S FOG
S. S. MARIE    MOCLDY    56  53  90 SE3       29.97S
MUNISING         N/A     51  48  89 NW6       29.99R
$$
MIZ004>006-011>014-085-260400-
CENTRAL UPPER MICHIGAN

CITY           SKY/WX    TMP DP  RH WIND       PRES   REMARKS
MANISTIQUE     CLOUDY    55  52  89 W7        29.97S
ESCANABA       CLOUDY    53  52  96 NW5       29.98S
MENOMINEE      CLOUDY    56  54  93 CALM      30.01R
SAWYER-GWINN   LGT RAIN  51  49  95 NW5       30.00S
$$
MIZ001>003-009>011-084-260400-
WESTERN UPPER MICHIGAN

CITY           SKY/WX    TMP DP  RH WIND       PRES   REMARKS
IRON MOUNTAIN  LGT RAIN  53  49  86 NW6       30.00R FOG
HOUGHTON       RAIN      47  44  90 W9        30.01S
COPPER HARBOR    N/A     49  48  97 N9        30.01R
IRONWOOD       CLOUDY    50  48  93 W9        30.05S
$$

ABBREVIATIONS USED IN REMARKS
   TC - TEMPERATURE IN CELSIUS
  WCI - WIND CHILL INDEX
   HX - HEAT INDEX
  VSB - VISIBILITY




USA.gov is the U.S. government's official web portal to all federal, state and local government web resources and services.